This demonstration page uses our WeatherBlox Daily Observations layout. Learn more.

Left ArrowRight Arrow

Hourly Observations for September 6, 2021

Temp ( °F °C ) Dew Point ( °F °C ) Humidity (%) Winds ( mph kmh ) Pressure ( in mb ) Visibility ( mi km ) Precip ( " mm )
12:53 am 00:53 Clear 74 23.3 61 16.1 64 64 NE 3 6 29.96 1014 10 16 0.00 0.00
1:53 am 01:53 Clear 72 22.2 61 16.1 68 68 NE 5 7 29.95 1014 10 16 0.00 0.00
2:53 am 02:53 Clear 71 21.7 61 16.1 71 71 NNE 6 9 29.95 1014 10 16 0.00 0.00
3:53 am 03:53 Clear 70 21.1 63 17.2 79 79 N 6 9 29.96 1015 10 16 0.00 0.00
4:53 am 04:53 Clear 69 20.6 65 18.3 87 87 N 7 11 29.97 1015 10 16 0.00 0.00
5:53 am 05:53 Clear 68 20 65 18.3 90 90 N 6 9 29.96 1015 10 16 0.00 0.00
6:53 am 06:53 Clear 67 19.4 64 17.8 91 91 NNE 7 11 29.98 1015 10 16 0.00 0.00
7:53 am 07:53 Sunny 67 19.4 64 17.8 91 91 N 7 11 30.00 1016 10 16 0.00 0.00
8:53 am 08:53 Sunny 73 22.8 65 18.3 76 76 NE 6 9 30.01 1016 10 16 0.00 0.00
9:53 am 09:53 Sunny 78 25.6 65 18.3 64 64 VRB 5 7 30.00 1016 10 16 0.00 0.00
10:53 am 10:53 Sunny 82 27.8 65 18.3 56 56 VRB 3 6 30.00 1016 10 16 0.00 0.00
11:53 am 11:53 Sunny 85 29.4 63 17.2 48 48 SSW 3 6 29.98 1015 10 16 0.00 0.00
12:53 pm 12:53 Sunny 87 30.6 62 16.7 43 43 Calm 29.96 1015 10 16 0.00 0.00
1:53 pm 13:53 Sunny 90 32.2 58 14.4 34 34 SSE 5 7 29.94 1014 10 16 0.00 0.00
2:53 pm 14:53 Mostly Sunny 92 33.3 56 13.3 30 30 undefined N/A 29.91 1013 10 16 0.00 0.00
3:53 pm 15:53 Mostly Sunny 93 33.9 56 13.3 29 29 VRB 7 11 29.87 1011 10 16 0.00 0.00
4:53 pm 16:53 Cloudy 94 34.4 55 12.8 27 27 VRB 5 7 29.84 1011 10 16 0.00 0.00
5:53 pm 17:53 Sunny 93 33.9 55 12.8 28 28 WSW 9 15 29.83 1010 10 16 0.00 0.00
6:53 pm 18:53 Sunny 91 32.8 55 12.8 30 30 W 7 11 29.83 1010 10 16 0.00 0.00
7:53 pm 19:53 Sunny 90 32.2 55 12.8 31 31 W 7 11 29.82 1010 10 16 0.00 0.00
8:53 pm 20:53 Clear 86 30 56 13.3 36 36 WNW 5 7 29.83 1010 10 16 0.00 0.00
9:53 pm 21:53 Clear 82 27.8 59 15 46 46 N 3 6 29.85 1011 10 16 0.00 0.00
10:53 pm 22:53 Clear 80 26.7 59 15 49 49 ENE 6 9 29.87 1012 10 16 0.00 0.00
11:53 pm 23:53 Clear 83 28.3 58 14.4 43 43 SE 10 17 29.87 1011 10 16 0.00 0.00

Powered by AerisWeather